"read_dt","SO2 (ppb)","flags","PMT voltage (V)","lamp voltage (V)","lamp intensity (Hz)","internal temp (C)","react chamber temp (C)","sample flow (l/min)","pres (mmHg)","SO2 bkg (ppb)","SO2 coefficient"
2014-02-17 00:00:00,5604E-2,5C000490,-0724,1306,7459,030.8,045.4,0.000,769.6,01.15,0.508
2014-02-17 00:01:00,5621E-2,5C000490,-0724,1305,7466,030.8,045.4,0.000,769.7,01.15,0.508
2014-02-17 00:02:00,5599E-2,5C000490,-0724,1306,7523,030.8,045.4,0.000,769.6,01.15,0.508
2014-02-17 00:03:00,5582E-2,5C000490,-0724,1306,7512,030.8,045.4,0.000,769.6,01.15,0.508
2014-02-17 00:04:00,5618E-2,5C000490,-0724,1306,7520,030.8,045.4,0.000,769.6,01.15,0.508
2014-02-17 00:05:00,5601E-2,5C000490,-0724,1308,7529,030.8,045.4,0.000,769.6,01.15,0.508
2014-02-17 00:06:00,5582E-2,5C000490,-0724,1309,7504,030.8,045.4,0.000,769.6,01.15,0.508
2014-02-17 00:07:00,5558E-2,5C000490,-0724,1310,7484,030.8,045.4,0.000,769.6,01.15,0.508
2014-02-17 00:08:00,5581E-2,5C000490,-0724,1310,7554,030.8,045.4,0.000,769.7,01.15,0.508
2014-02-17 00:09:00,5552E-2,5C000490,-0724,1311,7396,030.8,045.4,0.000,769.6,01.15,0.508
2014-02-17 00:10:00,5639E-2,5C000490,-0724,1311,7460,030.8,045.4,0.000,769.6,01.15,0.508
2014-02-17 00:11:00,5572E-2,5C000490,-0724,1313,7397,030.8,045.4,0.000,769.6,01.15,0.508
2014-02-17 00:12:00,5629E-2,5C000490,-0724,1312,7395,030.8,045.4,0.000,769.6,01.15,0.508
2014-02-17 00:13:00,5647E-2,5C000490,-0724,1313,7452,030.8,045.4,0.000,769.6,01.15,0.508
2014-02-17 00:14:00,5623E-2,5C000490,-0724,1313,7266,030.8,045.4,0.000,769.6,01.15,0.508
2014-02-17 00:15:00,5532E-2,5C000490,-0724,1312,7402,030.8,045.4,0.000,769.7,01.15,0.508
2014-02-17 00:16:00,5553E-2,5C000490,-0724,1314,7498,030.8,045.4,0.000,769.7,01.15,0.508
2014-02-17 00:17:00,5639E-2,5C000490,-0724,1312,7387,030.7,045.4,0.000,769.7,01.15,0.508
2014-02-17 00:18:00,5616E-2,5C000490,-0724,1314,7409,030.8,045.4,0.000,769.7,01.15,0.508
2014-02-17 00:19:00,5604E-2,5C000490,-0724,1316,7367,030.8,045.4,0.000,769.7,01.15,0.508
2014-02-17 00:20:00,5571E-2,5C000490,-0724,1315,7433,030.8,045.4,0.000,769.7,01.15,0.508
2014-02-17 00:21:00,5584E-2,5C000490,-0724,1316,7431,030.8,045.4,0.000,769.7,01.15,0.508
2014-02-17 00:22:00,5614E-2,5C000490,-0724,1316,7437,030.8,045.4,0.000,769.7,01.15,0.508
2014-02-17 00:23:00,5640E-2,5C000490,-0724,1315,7335,030.8,045.4,0.000,769.7,01.15,0.508
2014-02-17 00:24:00,5624E-2,5C000490,-0724,1316,7437,030.8,045.4,0.000,769.7,01.15,0.508
2014-02-17 00:25:00,5585E-2,5C000490,-0724,1318,7403,030.8,045.4,0.000,769.7,01.15,0.508
2014-02-17 00:26:00,5549E-2,5C000490,-0724,1319,7430,030.7,045.4,0.000,769.7,01.15,0.508
2014-02-17 00:27:00,5648E-2,5C000490,-0724,1319,7396,030.7,045.4,0.000,769.7,01.15,0.508
2014-02-17 00:28:00,5571E-2,5C000490,-0724,1320,7294,030.8,045.4,0.000,769.7,01.15,0.508
2014-02-17 00:29:00,5590E-2,5C000490,-0724,1321,7390,030.7,045.4,0.000,769.8,01.15,0.508
2014-02-17 00:30:00,5577E-2,5C000490,-0724,1322,7417,030.8,045.4,0.000,769.8,01.15,0.508
2014-02-17 00:31:00,5521E-2,5C000490,-0724,1321,7406,030.7,045.4,0.000,769.8,01.15,0.508
2014-02-17 00:32:00,5671E-2,5C000490,-0724,1322,7314,030.7,045.4,0.000,769.8,01.15,0.508
2014-02-17 00:33:00,5606E-2,5C000490,-0724,1318,7294,030.7,045.4,0.000,769.7,01.15,0.508
2014-02-17 00:34:00,5605E-2,5C000490,-0724,1317,7387,030.7,045.4,0.000,769.7,01.15,0.508
2014-02-17 00:35:00,5621E-2,5C000490,-0724,1317,7395,030.7,045.4,0.000,769.7,01.15,0.508
2014-02-17 00:36:00,5649E-2,5C000490,-0724,1317,7408,030.7,045.4,0.000,769.8,01.15,0.508
2014-02-17 00:37:00,5661E-2,5C000490,-0724,1317,7449,030.7,045.4,0.000,769.8,01.15,0.508
2014-02-17 00:38:00,5596E-2,5C000490,-0724,1317,7491,030.7,045.4,0.000,769.7,01.15,0.508
2014-02-17 00:39:00,5645E-2,5C000490,-0724,1317,7456,030.7,045.4,0.000,769.7,01.15,0.508
2014-02-17 00:40:00,5603E-2,5C000490,-0724,1318,7445,030.7,045.4,0.000,769.7,01.15,0.508
2014-02-17 00:41:00,5613E-2,5C000490,-0724,1318,7409,030.7,045.4,0.000,769.7,01.15,0.508
2014-02-17 00:42:00,5543E-2,5C000490,-0724,1320,7340,030.7,045.4,0.000,769.7,01.15,0.508
2014-02-17 00:43:00,5623E-2,5C000490,-0724,1321,7428,030.7,045.4,0.000,769.8,01.15,0.508
2014-02-17 00:44:00,5580E-2,5C000490,-0724,1321,7404,030.7,045.4,0.000,769.8,01.15,0.508
2014-02-17 00:45:00,5658E-2,5C000490,-0724,1320,7426,030.7,045.4,0.000,769.7,01.15,0.508
2014-02-17 00:46:00,5569E-2,5C000490,-0724,1321,7428,030.7,045.4,0.000,769.7,01.15,0.508
2014-02-17 00:47:00,5643E-2,5C000490,-0724,1321,7321,030.7,045.4,0.000,769.7,01.15,0.508
2014-02-17 00:48:00,5667E-2,5C000490,-0724,1322,7251,030.7,045.4,0.000,769.7,01.15,0.508
2014-02-17 00:49:00,5666E-2,5C000490,-0724,1323,7264,030.7,045.4,0.000,769.7,01.15,0.508
2014-02-17 00:50:00,5666E-2,5C000490,-0724,1323,7289,030.7,045.4,0.000,769.6,01.15,0.508
2014-02-17 00:51:00,5642E-2,5C000490,-0724,1325,7334,030.7,045.4,0.000,769.6,01.15,0.508
2014-02-17 00:52:00,5689E-2,5C000490,-0724,1326,7352,030.7,045.4,0.000,769.7,01.15,0.508
2014-02-17 00:53:00,5680E-2,5C000490,-0724,1327,7270,030.7,045.4,0.000,769.6,01.15,0.508
2014-02-17 00:54:00,5709E-2,5C000490,-0724,1327,7262,030.7,045.4,0.000,769.6,01.15,0.508
2014-02-17 00:55:00,5664E-2,5C000490,-0724,1329,7293,030.7,045.4,0.000,769.7,01.15,0.508
2014-02-17 00:56:00,5669E-2,5C000490,-0724,1330,7309,030.7,045.4,0.000,769.6,01.15,0.508
2014-02-17 00:57:00,5680E-2,5C000490,-0724,1330,7122,030.7,045.4,0.000,769.7,01.15,0.508
2014-02-17 00:58:00,5591E-2,5C000490,-0724,1332,7192,030.7,045.4,0.000,769.7,01.15,0.508
2014-02-17 00:59:00,5647E-2,5C000490,-0724,1333,7218,030.7,045.4,0.000,769.6,01.15,0.508
2014-02-17 01:00:00,5610E-2,5C000490,-0724,1333,7154,030.7,045.4,0.000,769.7,01.15,0.508
2014-02-17 01:01:00,5623E-2,5C000490,-0724,1333,7220,030.6,045.4,0.000,769.7,01.15,0.508
2014-02-17 01:02:00,5638E-2,5C000490,-0724,1333,7296,030.7,045.4,0.000,769.7,01.15,0.508
2014-02-17 01:03:00,5643E-2,5C000490,-0724,1334,7262,030.6,045.4,0.000,769.7,01.15,0.508
2014-02-17 01:04:00,5711E-2,5C000490,-0724,1335,7233,030.6,045.4,0.000,769.6,01.15,0.508
2014-02-17 01:05:00,5655E-2,5C000490,-0724,1336,7198,030.6,045.4,0.000,769.7,01.15,0.508
2014-02-17 01:06:00,5659E-2,5C000490,-0724,1337,7176,030.6,045.4,0.000,769.7,01.15,0.508
2014-02-17 01:07:00,5624E-2,5C000490,-0724,1337,7274,030.6,045.4,0.000,769.7,01.15,0.508
2014-02-17 01:08:00,5639E-2,5C000490,-0724,1338,7098,030.6,045.4,0.000,769.8,01.15,0.508
2014-02-17 01:09:00,5659E-2,5C000490,-0724,1338,7220,030.6,045.4,0.000,769.8,01.15,0.508
2014-02-17 01:10:00,5656E-2,5C000490,-0724,1339,7163,030.6,045.4,0.000,769.7,01.15,0.508
2014-02-17 01:11:00,5663E-2,5C000490,-0724,1340,7127,030.6,045.4,0.000,769.8,01.15,0.508
2014-02-17 01:12:00,5623E-2,5C000490,-0724,1340,7116,030.6,045.4,0.000,769.8,01.15,0.508
2014-02-17 01:13:00,5600E-2,5C000490,-0724,1340,7195,030.6,045.4,0.000,769.7,01.15,0.508
2014-02-17 01:14:00,5637E-2,5C000490,-0724,1341,7252,030.6,045.4,0.000,769.8,01.15,0.508
2014-02-17 01:15:00,5617E-2,5C000490,-0724,1341,7166,030.6,045.4,0.000,769.8,01.15,0.508
2014-02-17 01:16:00,5630E-2,5C000490,-0724,1338,7249,030.6,045.4,0.000,769.8,01.15,0.508
2014-02-17 01:17:00,5667E-2,5C000490,-0724,1338,7174,030.6,045.4,0.000,769.8,01.15,0.508
2014-02-17 01:18:00,5644E-2,5C000490,-0724,1339,7109,030.6,045.4,0.000,769.8,01.15,0.508
2014-02-17 01:19:00,5628E-2,5C000490,-0724,1339,7146,030.6,045.4,0.000,769.8,01.15,0.508
2014-02-17 01:20:00,5642E-2,5C000490,-0724,1340,7237,030.6,045.4,0.000,769.8,01.15,0.508
2014-02-17 01:21:00,5611E-2,5C000490,-0724,1342,7126,030.6,045.4,0.000,769.8,01.15,0.508
2014-02-17 01:22:00,5677E-2,5C000490,-0724,1342,7154,030.6,045.4,0.000,769.9,01.15,0.508
2014-02-17 01:23:00,5657E-2,5C000490,-0724,1342,7050,030.6,045.4,0.000,769.9,01.15,0.508
2014-02-17 01:24:00,5672E-2,5C000490,-0724,1343,7156,030.6,045.4,0.000,769.8,01.15,0.508
2014-02-17 01:25:00,5616E-2,5C000490,-0724,1344,7144,030.6,045.4,0.000,769.8,01.15,0.508
2014-02-17 01:26:00,5610E-2,5C000490,-0724,1346,7179,030.6,045.4,0.000,769.8,01.15,0.508
2014-02-17 01:27:00,5610E-2,5C000490,-0724,1346,7134,030.6,045.4,0.000,769.8,01.15,0.508
2014-02-17 01:28:00,5653E-2,5C000490,-0724,1347,7085,030.6,045.4,0.000,769.8,01.15,0.508
2014-02-17 01:29:00,5605E-2,5C000490,-0724,1347,7130,030.6,045.4,0.000,769.8,01.15,0.508
2014-02-17 01:30:00,5667E-2,5C000490,-0724,1348,7089,030.6,045.4,0.000,769.8,01.15,0.508
2014-02-17 01:31:00,5676E-2,5C000490,-0724,1348,7063,030.6,045.4,0.000,769.7,01.15,0.508
2014-02-17 01:32:00,5613E-2,5C000490,-0724,1350,7015,030.6,045.4,0.000,769.7,01.15,0.508
2014-02-17 01:33:00,5645E-2,5C000490,-0724,1348,7147,030.6,045.4,0.000,769.8,01.15,0.508
2014-02-17 01:34:00,5614E-2,5C000490,-0724,1347,6966,030.6,045.4,0.000,769.8,01.15,0.508
2014-02-17 01:35:00,5620E-2,5C000490,-0724,1348,7075,030.6,045.4,0.000,769.7,01.15,0.508
2014-02-17 01:36:00,5653E-2,5C000490,-0724,1348,7076,030.6,045.4,0.000,769.7,01.15,0.508
2014-02-17 01:37:00,5651E-2,5C000490,-0724,1347,7095,030.6,045.4,0.000,769.8,01.15,0.508
2014-02-17 01:38:00,5588E-2,5C000490,-0724,1348,7109,030.6,045.4,0.000,769.8,01.15,0.508
2014-02-17 01:39:00,5669E-2,5C000490,-0724,1349,7133,030.6,045.4,0.000,769.8,01.15,0.508
2014-02-17 01:40:00,5640E-2,5C000490,-0724,1349,7137,030.6,045.4,0.000,769.8,01.15,0.508
2014-02-17 01:41:00,5671E-2,5C000490,-0724,1349,7085,030.6,045.4,0.000,769.8,01.15,0.508
2014-02-17 01:42:00,5642E-2,5C000490,-0724,1350,7068,030.6,045.4,0.000,769.8,01.15,0.508
2014-02-17 01:43:00,5674E-2,5C000490,-0724,1351,7030,030.6,045.4,0.000,769.8,01.15,0.508
2014-02-17 01:44:00,5648E-2,5C000490,-0724,1351,7051,030.6,045.4,0.000,769.8,01.15,0.508
2014-02-17 01:45:00,5626E-2,5C000490,-0724,1352,7022,030.6,045.4,0.000,769.8,01.15,0.508
2014-02-17 01:46:00,5572E-2,5C000490,-0724,1353,7099,030.5,045.4,0.000,769.8,01.15,0.508
2014-02-17 01:47:00,5615E-2,5C000490,-0724,1354,7016,030.6,045.4,0.000,769.8,01.15,0.508
2014-02-17 01:48:00,5604E-2,5C000490,-0724,1354,7039,030.6,045.4,0.000,769.9,01.15,0.508
2014-02-17 01:49:00,5620E-2,5C000490,-0724,1355,7040,030.5,045.4,0.000,770.0,01.15,0.508
2014-02-17 01:50:00,5566E-2,5C000490,-0724,1356,6989,030.5,045.4,0.000,769.9,01.15,0.508
2014-02-17 01:51:00,5626E-2,5C000490,-0724,1357,6988,030.5,045.4,0.000,770.0,01.15,0.508
2014-02-17 01:52:00,5556E-2,5C000490,-0724,1358,6940,030.5,045.4,0.000,770.0,01.15,0.508
2014-02-17 01:53:00,5641E-2,5C000490,-0724,1357,6972,030.5,045.4,0.000,770.0,01.15,0.508
2014-02-17 01:54:00,5564E-2,5C000490,-0724,1358,6941,030.5,045.4,0.000,770.0,01.15,0.508
2014-02-17 01:55:00,5538E-2,5C000490,-0724,1356,6984,030.5,045.4,0.000,770.1,01.15,0.508
2014-02-17 01:56:00,5546E-2,5C000490,-0724,1357,6938,030.5,045.4,0.000,770.1,01.15,0.508
2014-02-17 01:57:00,5580E-2,5C000490,-0724,1357,7071,030.5,045.4,0.000,770.0,01.15,0.508
2014-02-17 01:58:00,5630E-2,5C000490,-0724,1357,7004,030.5,045.4,0.000,770.0,01.15,0.508
2014-02-17 01:59:00,5557E-2,5C000490,-0724,1358,6924,030.5,045.4,0.000,770.0,01.15,0.508
2014-02-17 02:00:00,5648E-2,5C000490,-0724,1354,7091,030.5,045.4,0.000,770.1,01.15,0.508
2014-02-17 02:01:00,5612E-2,5C000490,-0724,1351,7061,030.5,045.4,0.000,770.1,01.15,0.508
2014-02-17 02:02:00,5707E-2,5C000490,-0724,1352,7096,030.5,045.4,0.000,770.0,01.15,0.508
2014-02-17 02:03:00,5564E-2,5C000490,-0724,1353,7071,030.5,045.4,0.000,770.1,01.15,0.508
2014-02-17 02:04:00,5562E-2,5C000490,-0724,1353,7045,030.5,045.4,0.000,770.1,01.15,0.508
2014-02-17 02:05:00,5501E-2,5C000490,-0724,1355,6963,030.5,045.4,0.000,770.0,01.15,0.508
2014-02-17 02:06:00,5641E-2,5C000490,-0724,1355,7001,030.5,045.4,0.000,770.0,01.15,0.508
2014-02-17 02:07:00,5516E-2,5C000490,-0724,1356,7010,030.5,045.4,0.000,770.1,01.15,0.508
2014-02-17 02:08:00,5589E-2,5C000490,-0724,1354,6937,030.5,045.4,0.000,770.1,01.15,0.508
2014-02-17 02:09:00,5585E-2,5C000490,-0724,1352,7118,030.5,045.4,0.000,770.1,01.15,0.508
2014-02-17 02:10:00,5546E-2,5C000490,-0724,1351,7076,030.5,045.4,0.000,770.1,01.15,0.508
2014-02-17 02:11:00,5605E-2,5C000490,-0724,1352,6947,030.5,045.4,0.000,770.1,01.15,0.508
2014-02-17 02:12:00,5576E-2,5C000490,-0724,1351,7069,030.5,045.4,0.000,770.1,01.15,0.508
2014-02-17 02:13:00,5539E-2,5C000490,-0724,1351,7014,030.5,045.4,0.000,770.1,01.15,0.508
2014-02-17 02:14:00,5566E-2,5C000490,-0724,1353,6973,030.5,045.4,0.000,770.1,01.15,0.508
2014-02-17 02:15:00,5577E-2,5C000490,-0724,1352,7059,030.5,045.4,0.000,770.1,01.15,0.508
2014-02-17 02:16:00,5558E-2,5C000490,-0724,1352,7055,030.5,045.4,0.000,770.1,01.15,0.508
2014-02-17 02:17:00,5539E-2,5C000490,-0724,1352,7078,030.5,045.4,0.000,770.1,01.15,0.508
2014-02-17 02:18:00,5608E-2,5C000490,-0724,1352,7014,030.5,045.4,0.000,770.1,01.15,0.508
2014-02-17 02:19:00,5531E-2,5C000490,-0724,1352,7042,030.5,045.4,0.000,770.1,01.15,0.508
2014-02-17 02:20:00,5553E-2,5C000490,-0724,1353,7048,030.5,045.4,0.000,770.1,01.15,0.508
2014-02-17 02:21:00,5549E-2,5C000490,-0724,1353,7103,030.5,045.4,0.000,770.1,01.15,0.508
2014-02-17 02:22:00,5555E-2,5C000490,-0724,1354,6956,030.5,045.4,0.000,770.1,01.15,0.508
2014-02-17 02:23:00,5581E-2,5C000490,-0724,1356,7059,030.5,045.4,0.000,770.1,01.15,0.508
2014-02-17 02:24:00,5544E-2,5C000490,-0724,1356,6998,030.5,045.4,0.000,770.1,01.15,0.508
2014-02-17 02:25:00,5510E-2,5C000490,-0724,1356,6977,030.5,045.4,0.000,770.0,01.15,0.508
2014-02-17 02:26:00,5515E-2,5C000490,-0724,1357,6975,030.5,045.4,0.000,770.1,01.15,0.508
2014-02-17 02:27:00,5562E-2,5C000490,-0724,1357,6994,030.5,045.4,0.000,770.1,01.15,0.508
2014-02-17 02:28:00,5488E-2,5C000490,-0724,1358,6997,030.5,045.4,0.000,770.1,01.15,0.508
2014-02-17 02:29:00,5487E-2,5C000490,-0724,1359,6953,030.5,045.4,0.000,770.0,01.15,0.508
2014-02-17 02:30:00,5474E-2,5C000490,-0724,1360,6913,030.5,045.4,0.000,770.0,01.15,0.508
2014-02-17 02:31:00,5513E-2,5C000490,-0724,1360,6848,030.5,045.4,0.000,770.1,01.15,0.508
2014-02-17 02:32:00,5564E-2,5C000490,-0724,1357,7019,030.4,045.4,0.000,770.1,01.15,0.508
2014-02-17 02:33:00,5556E-2,5C000490,-0724,1356,7003,030.5,045.4,0.000,770.1,01.15,0.508
2014-02-17 02:34:00,5560E-2,5C000490,-0724,1357,6991,030.5,045.4,0.000,770.1,01.15,0.508
2014-02-17 02:35:00,5479E-2,5C000490,-0724,1358,6904,030.4,045.4,0.000,770.1,01.15,0.508
2014-02-17 02:36:00,5533E-2,5C000490,-0724,1359,6951,030.4,045.4,0.000,770.1,01.15,0.508
2014-02-17 02:37:00,5493E-2,5C000490,-0724,1358,6915,030.4,045.4,0.000,770.1,01.15,0.508
2014-02-17 02:38:00,5503E-2,5C000490,-0724,1359,6929,030.4,045.4,0.000,770.1,01.15,0.508
2014-02-17 02:39:00,5500E-2,5C000490,-0724,1360,6946,030.4,045.4,0.106,770.1,01.15,0.508
2014-02-17 02:40:00,5472E-2,5C000490,-0724,1361,6896,030.4,045.4,0.107,770.1,01.15,0.508
2014-02-17 02:41:00,5502E-2,5C000490,-0724,1360,6961,030.4,045.4,0.000,770.1,01.15,0.508
2014-02-17 02:42:00,5490E-2,5C000490,-0724,1361,6922,030.4,045.4,0.107,770.1,01.15,0.508
2014-02-17 02:43:00,5509E-2,5C000490,-0724,1361,6834,030.4,045.4,0.112,770.1,01.15,0.508
2014-02-17 02:44:00,5463E-2,5C000490,-0724,1362,6861,030.4,045.4,0.111,770.1,01.15,0.508
2014-02-17 02:45:00,5496E-2,5C000490,-0724,1362,6954,030.4,045.4,0.108,770.1,01.15,0.508
2014-02-17 02:46:00,5518E-2,5C000490,-0724,1363,7003,030.4,045.4,0.108,770.1,01.15,0.508
2014-02-17 02:47:00,5445E-2,5C000490,-0724,1364,6942,030.4,045.4,0.108,770.1,01.15,0.508
2014-02-17 02:48:00,5521E-2,5C000490,-0724,1364,6890,030.4,045.4,0.104,770.2,01.15,0.508
2014-02-17 02:49:00,5559E-2,5C000490,-0724,1365,6870,030.4,045.4,0.107,770.1,01.15,0.508
2014-02-17 02:50:00,5544E-2,5C000490,-0724,1365,6845,030.4,045.4,0.105,770.1,01.15,0.508
2014-02-17 02:51:00,5478E-2,5C000490,-0724,1365,6860,030.4,045.4,0.104,770.2,01.15,0.508
2014-02-17 02:52:00,5487E-2,5C000490,-0724,1364,6943,030.4,045.4,0.104,770.2,01.15,0.508
2014-02-17 02:53:00,5587E-2,5C000490,-0724,1363,6954,030.4,045.4,0.107,770.2,01.15,0.508
2014-02-17 02:54:00,5498E-2,5C000490,-0724,1362,6853,030.4,045.4,0.104,770.3,01.15,0.508
2014-02-17 02:55:00,5609E-2,5C000490,-0724,1363,6947,030.4,045.4,0.103,770.2,01.15,0.508
2014-02-17 02:56:00,5503E-2,5C000490,-0724,1364,6744,030.4,045.4,0.104,770.2,01.15,0.508
2014-02-17 02:57:00,5556E-2,5C000490,-0724,1365,6820,030.4,045.4,0.102,770.2,01.15,0.508
2014-02-17 02:58:00,5517E-2,5C000490,-0724,1367,6885,030.4,045.4,0.103,770.3,01.15,0.508
2014-02-17 02:59:00,5521E-2,5C000490,-0724,1367,6859,030.4,045.4,0.102,770.3,01.15,0.508
2014-02-17 03:00:00,5544E-2,5C000490,-0724,1366,6836,030.4,045.4,0.101,770.3,01.15,0.508
2014-02-17 03:01:00,5549E-2,5C000490,-0724,1366,6860,030.4,045.4,0.102,770.3,01.15,0.508
2014-02-17 03:02:00,5532E-2,5C000490,-0724,1365,6958,030.4,045.4,0.108,770.3,01.15,0.508
2014-02-17 03:03:00,5554E-2,5C000490,-0724,1365,6821,030.4,045.4,0.110,770.3,01.15,0.508
2014-02-17 03:04:00,5559E-2,5C000490,-0724,1365,6766,030.4,045.4,0.104,770.4,01.15,0.508
2014-02-17 03:05:00,5519E-2,5C000490,-0724,1366,6849,030.4,045.4,0.103,770.4,01.15,0.508
2014-02-17 03:06:00,5543E-2,5C000490,-0724,1366,6866,030.4,045.4,0.108,770.4,01.15,0.508
2014-02-17 03:07:00,5500E-2,5C000490,-0724,1367,6792,030.4,045.4,0.108,770.4,01.15,0.508
2014-02-17 03:08:00,5510E-2,5C000490,-0724,1368,6751,030.4,045.4,0.107,770.4,01.15,0.508
2014-02-17 03:09:00,5535E-2,5C000490,-0724,1368,6756,030.4,045.4,0.108,770.3,01.15,0.508
2014-02-17 03:10:00,5505E-2,5C000490,-0724,1368,6848,030.4,045.4,0.110,770.4,01.15,0.508
2014-02-17 03:11:00,5534E-2,5C000490,-0724,1369,6808,030.4,045.4,0.106,770.4,01.15,0.508
2014-02-17 03:12:00,5572E-2,5C000490,-0724,1369,6813,030.4,045.4,0.101,770.4,01.15,0.508
2014-02-17 03:13:00,5534E-2,5C000490,-0724,1369,6846,030.4,045.4,0.102,770.4,01.15,0.508
2014-02-17 03:14:00,5572E-2,5C000490,-0724,1370,6726,030.4,045.4,0.112,770.4,01.15,0.508
2014-02-17 03:15:00,5459E-2,5C000490,-0724,1370,6845,030.4,045.4,0.111,770.4,01.15,0.508
2014-02-17 03:16:00,5551E-2,5C000490,-0724,1371,6787,030.4,045.4,0.109,770.4,01.15,0.508
2014-02-17 03:17:00,5514E-2,5C000490,-0724,1371,6780,030.4,045.4,0.108,770.4,01.15,0.508
2014-02-17 03:18:00,5532E-2,5C000490,-0724,1372,6749,030.4,045.4,0.103,770.4,01.15,0.508
2014-02-17 03:19:00,5451E-2,5C000490,-0724,1372,6734,030.4,045.4,0.110,770.4,01.15,0.508
2014-02-17 03:20:00,5561E-2,5C000490,-0724,1372,6720,030.3,045.4,0.109,770.4,01.15,0.508
2014-02-17 03:21:00,5501E-2,5C000490,-0724,1372,6786,030.4,045.4,0.100,770.4,01.15,0.508
2014-02-17 03:22:00,5562E-2,5C000490,-0724,1370,6792,030.4,045.4,0.100,770.4,01.15,0.508
2014-02-17 03:23:00,5514E-2,5C000490,-0724,1370,6744,030.4,045.4,0.101,770.3,01.15,0.508
2014-02-17 03:24:00,5526E-2,5C000490,-0724,1370,6753,030.3,045.4,0.115,770.4,01.15,0.508
2014-02-17 03:25:00,5573E-2,5C000490,-0724,1370,6801,030.3,045.4,0.107,770.5,01.15,0.508
2014-02-17 03:26:00,5638E-2,5C000490,-0724,1369,6845,030.3,045.4,0.103,770.4,01.15,0.508
2014-02-17 03:27:00,5516E-2,5C000490,-0724,1370,6801,030.3,045.4,0.100,770.4,01.15,0.508
2014-02-17 03:28:00,5507E-2,5C000490,-0724,1370,6701,030.3,045.4,0.108,770.4,01.15,0.508
2014-02-17 03:29:00,5517E-2,5C000490,-0724,1371,6750,030.3,045.4,0.108,770.5,01.15,0.508
2014-02-17 03:30:00,5531E-2,5C000490,-0724,1371,6803,030.3,045.4,0.109,770.4,01.15,0.508
2014-02-17 03:31:00,5557E-2,5C000490,-0724,1371,6804,030.3,045.4,0.112,770.4,01.15,0.508
2014-02-17 03:32:00,5529E-2,5C000490,-0724,1371,6734,030.3,045.4,0.106,770.5,01.15,0.508
2014-02-17 03:33:00,5515E-2,5C000490,-0724,1371,6817,030.3,045.4,0.105,770.4,01.15,0.508
2014-02-17 03:34:00,5526E-2,5C000490,-0724,1371,6842,030.3,045.4,0.111,770.4,01.15,0.508
2014-02-17 03:35:00,5568E-2,5C000490,-0724,1371,6785,030.3,045.4,0.107,770.5,01.15,0.508
2014-02-17 03:36:00,5595E-2,5C000490,-0724,1371,6740,030.3,045.4,0.110,770.5,01.15,0.508
2014-02-17 03:37:00,5505E-2,5C000490,-0724,1372,6774,030.3,045.4,0.111,770.5,01.15,0.508
2014-02-17 03:38:00,5555E-2,5C000490,-0724,1372,6710,030.3,045.4,0.102,770.5,01.15,0.508
2014-02-17 03:39:00,5570E-2,5C000490,-0724,1372,6733,030.3,045.4,0.100,770.5,01.15,0.508
2014-02-17 03:40:00,5501E-2,5C000490,-0724,1372,6686,030.3,045.4,0.123,770.6,01.15,0.508
2014-02-17 03:41:00,5555E-2,5C000490,-0724,1373,6775,030.3,045.4,0.126,770.6,01.15,0.508
2014-02-17 03:42:00,5526E-2,5C000490,-0724,1373,6660,030.3,045.4,0.137,770.6,01.15,0.508
2014-02-17 03:43:00,5549E-2,5C000490,-0724,1373,6739,030.3,045.4,0.135,770.6,01.15,0.508
2014-02-17 03:44:00,5500E-2,5C000490,-0724,1373,6660,030.3,045.4,0.134,770.6,01.15,0.508
2014-02-17 03:45:00,5505E-2,5C000490,-0724,1374,6628,030.3,045.4,0.152,770.6,01.15,0.508
2014-02-17 03:46:00,5523E-2,5C000490,-0724,1374,6700,030.3,045.4,0.167,770.6,01.15,0.508
2014-02-17 03:47:00,5500E-2,5C000490,-0724,1373,6679,030.3,045.4,0.156,770.6,01.15,0.508
2014-02-17 03:48:00,5475E-2,5C000490,-0724,1373,6763,030.3,045.4,0.160,770.6,01.15,0.508
2014-02-17 03:49:00,5476E-2,5C000490,-0724,1373,6645,030.3,045.4,0.187,770.6,01.15,0.508
2014-02-17 03:50:00,5467E-2,5C000490,-0724,1373,6810,030.2,045.4,0.189,770.6,01.15,0.508
2014-02-17 03:51:00,5412E-2,5C000490,-0724,1373,6666,030.2,045.4,0.205,770.7,01.15,0.508
2014-02-17 03:52:00,5486E-2,5C000490,-0724,1373,6687,030.2,045.4,0.204,770.6,01.15,0.508
2014-02-17 03:53:00,5505E-2,5C000490,-0724,1373,6664,030.2,045.4,0.204,770.6,01.15,0.508
2014-02-17 03:54:00,5494E-2,5C000490,-0724,1374,6571,030.2,045.4,0.204,770.6,01.15,0.508
2014-02-17 03:55:00,5469E-2,5C000490,-0724,1374,6702,030.2,045.4,0.212,770.6,01.15,0.508
2014-02-17 03:56:00,5487E-2,5C000490,-0724,1374,6707,030.2,045.4,0.205,770.5,01.15,0.508
2014-02-17 03:57:00,5461E-2,5C000490,-0724,1374,6687,030.2,045.4,0.226,770.6,01.15,0.508
2014-02-17 03:58:00,5542E-2,5C000490,-0724,1374,6679,030.2,045.4,0.241,770.6,01.15,0.508
2014-02-17 03:59:00,5463E-2,5C000490,-0724,1370,6848,030.2,045.4,0.240,770.6,01.15,0.508
2014-02-17 04:00:00,5491E-2,5C000490,-0724,1370,6867,030.2,045.4,0.244,770.6,01.15,0.508
2014-02-17 04:01:00,5480E-2,5C000490,-0724,1370,6831,030.2,045.4,0.251,770.6,01.15,0.508
2014-02-17 04:02:00,5474E-2,5C000490,-0724,1370,6706,030.2,045.4,0.243,770.6,01.15,0.508
2014-02-17 04:03:00,5452E-2,5C000490,-0724,1365,6971,030.2,045.4,0.268,770.6,01.15,0.508
2014-02-17 04:04:00,5519E-2,5C000490,-0724,1355,7125,030.2,045.4,0.256,770.6,01.15,0.508
2014-02-17 04:05:00,5542E-2,5C000490,-0724,1351,7040,030.2,045.4,0.255,770.5,01.15,0.508
2014-02-17 04:06:00,5452E-2,5C000090,-0724,1351,6984,030.2,045.4,0.276,770.6,01.15,0.508
2014-02-17 04:07:00,5449E-2,5C000090,-0724,1352,6993,030.2,045.4,0.283,770.7,01.15,0.508
2014-02-17 04:08:00,5529E-2,5C000490,-0724,1353,6993,030.2,045.4,0.268,770.6,01.15,0.508
2014-02-17 04:09:00,5495E-2,5C000090,-0724,1355,6946,030.2,045.4,0.278,770.6,01.15,0.508
2014-02-17 04:10:00,5494E-2,5C000090,-0724,1355,6985,030.2,045.4,0.288,770.6,01.15,0.508
2014-02-17 04:11:00,5526E-2,5C000490,-0724,1355,6982,030.2,045.4,0.201,770.6,01.15,0.508
2014-02-17 04:12:00,5494E-2,5C000490,-0724,1356,7038,030.2,045.4,0.219,770.6,01.15,0.508
2014-02-17 04:13:00,5538E-2,5C000490,-0724,1358,6856,030.2,045.4,0.237,770.6,01.15,0.508
2014-02-17 04:14:00,5541E-2,5C000490,-0724,1359,6964,030.2,045.4,0.217,770.6,01.15,0.508
2014-02-17 04:15:00,5566E-2,5C000490,-0724,1358,6888,030.2,045.4,0.212,770.6,01.15,0.508
2014-02-17 04:16:00,5542E-2,5C000490,-0724,1359,6989,030.2,045.4,0.217,770.5,01.15,0.508
2014-02-17 04:17:00,5448E-2,5C000490,-0724,1361,6950,030.2,045.4,0.268,770.7,01.15,0.508
2014-02-17 04:18:00,5518E-2,5C000490,-0724,1361,6940,030.2,045.4,0.253,770.6,01.15,0.508
2014-02-17 04:19:00,5516E-2,5C000490,-0724,1361,6874,030.2,045.4,0.238,770.6,01.15,0.508
2014-02-17 04:20:00,5500E-2,5C000490,-0724,1363,6965,030.2,045.4,0.244,770.5,01.15,0.508
2014-02-17 04:21:00,5521E-2,5C000090,-0724,1363,6839,030.2,045.4,0.280,770.6,01.15,0.508
2014-02-17 04:22:00,5540E-2,5C000490,-0724,1364,6866,030.2,045.4,0.274,770.6,01.15,0.508
2014-02-17 04:23:00,5521E-2,5C000490,-0724,1366,6787,030.1,045.4,0.273,770.6,01.15,0.508